K2MST Weather Reports


time (UTC)temp
C
wind
direction
speed
KPH
gust
KPH
rain 1hr
cm
rain 24hr
cm
rain mn
cm
humidity
%
barometer
mb
20260509145018 11 68 3.2 9.7 0.00 0.00 0.00 75 1006.8
20260509144018 11 68 6.4 12.9 0.00 0.03 0.00 75 1007.0
20260509143018 11 68 1.6 4.8 0.00 0.05 0.00 75 1007.0
20260509142017 11 68 4.8 11.3 0.00 0.05 0.00 75 1007.1
20260509141017 10 68 8.0 16.1 0.00 0.08 0.00 75 1007.0
20260509140038 10 68 4.8 9.7 0.00 0.08 0.00 75 1007.0
20260509135017 10 68 6.4 16.1 0.00 0.08 0.00 75 1007.3
20260509134017 10 90 4.8 11.3 0.00 0.08 0.00 75 1007.4
20260509133017 10 68 4.8 9.7 0.00 0.10 0.00 74 1007.4
20260509132017 10 68 1.6 6.4 0.00 0.10 0.00 75 1007.4
20260509131017 9 68 1.6 6.4 0.00 0.10 0.00 75 1007.6
20260509130017 9 90 4.8 8.0 0.00 0.10 0.00 74 1007.4
20260509125017 9 45 4.8 9.7 0.00 0.10 0.00 75 1007.2
20260509124037 8 68 3.2 9.7 0.00 0.10 0.00 76 1007.3
20260509123017 8 68 4.8 9.7 0.00 0.10 0.00 74 1007.3
20260509122017 8 90 1.6 6.4 0.00 0.10 0.00 73 1007.5
20260509121017 8 0.0 1.6 0.00 0.10 0.00 74 1007.7
20260509120017 8 0.0 0.0 0.00 0.10 0.00 73 1007.5
20260509115017 8 0.0 0.0 0.00 0.10 0.00 73 1007.7
20260509114017 7 0.0 1.6 0.00 0.10 0.00 73 1007.8
20260509113017 7 0.0 1.6 0.00 0.10 0.00 73 1007.8
20260509112017 7 0.0 4.8 0.00 0.10 0.00 73 1007.8
20260509111017 7 90 1.6 8.0 0.00 0.10 0.00 73 1007.8
20260509110017 7 90 1.6 4.8 0.00 0.10 0.00 72 1007.9
20260509105017 7 90 3.2 9.7 0.00 0.10 0.00 72 1007.8
20260509104017 7 68 3.2 8.0 0.00 0.10 0.00 72 1007.9
20260509103037 6 68 1.6 8.0 0.00 0.10 0.00 74 1007.8
20260509102017 6 0.0 0.0 0.00 0.10 0.00 78 1007.9
20260509101019 5 0.0 0.0 0.00 0.10 0.00 79 1007.7
20260509100018 5 0.0 1.6 0.00 0.10 0.00 78 1007.5
20260509095019 6 0.0 1.6 0.00 0.10 0.00 77 1007.5
20260509094020 6 0.0 0.0 0.00 0.10 0.00 76 1007.4
20260509093019 5 0.0 0.0 0.00 0.10 0.00 77 1007.4
20260509092019 5 0.0 0.0 0.00 0.10 0.00 78 1007.5
20260509091019 5 0.0 0.0 0.00 0.10 0.00 80 1007.6
20260509090018 5 0.0 0.0 0.00 0.10 0.00 80 1007.7
20260509085020 5 0.0 0.0 0.00 0.10 0.00 80 1008.0
20260509084019 5 0.0 1.6 0.00 0.10 0.00 80 1008.1
20260509083041 5 0.0 0.0 0.00 0.10 0.00 79 1008.1
20260509082059 5 0.0 0.0 0.00 0.10 0.00 78 1008.2
20260509081018 5 0.0 0.0 0.00 0.10 0.00 76 1008.2
20260509080018 6 0.0 0.0 0.00 0.10 0.00 76 1008.2
20260509075018 5 0.0 0.0 0.00 0.10 0.00 78 1008.3
20260509074018 5 0.0 0.0 0.00 0.10 0.00 78 1008.5
20260509073018 5 0.0 0.0 0.00 0.10 0.00 78 1008.5
20260509072018 5 0.0 0.0 0.00 0.10 0.00 76 1008.3
20260509071018 6 0.0 0.0 0.00 0.10 0.00 75 1008.3
20260509070018 6 0.0 0.0 0.00 0.10 0.00 75 1008.3
20260509065058 5 0.0 0.0 0.00 0.13 0.00 75 1008.4
20260509064020 6 0.0 0.0 0.00 0.13 0.00 75 1008.5
20260509063018 6 0.0 0.0 0.00 0.13 0.00 74 1008.6
20260509062018 6 0.0 0.0 0.00 0.18 0.00 73 1008.7
20260509061018 6 180 1.6 4.8 0.00 0.18 0.00 73 1008.8
20260509060018 6 158 1.6 3.2 0.00 0.18 0.00 72 1009.0
20260509055018 6 180 1.6 4.8 0.00 0.18 0.00 72 1009.2
20260509054058 6 180 3.2 6.4 0.00 0.18 0.00 72 1009.2
20260509053017 6 180 3.2 4.8 0.00 0.18 0.00 73 1009.3
20260509052018 6 180 3.2 4.8 0.00 0.18 0.00 74 1009.4
20260509051018 6 180 3.2 4.8 0.00 0.18 0.00 74 1009.4
20260509050018 6 180 3.2 4.8 0.00 0.18 0.00 73 1009.6
20260509045019 6 180 1.6 4.8 0.00 0.18 0.00 73 1009.6
20260509044038 5 180 1.6 3.2 0.00 0.18 0.00 75 1009.7
20260509043038 5 0.0 3.2 0.00 0.18 0.00 76 1009.7
20260509042018 5 158 3.2 6.4 0.00 0.18 0.00 76 1009.8
20260509041017 5 158 3.2 6.4 0.00 0.18 0.00 75 1009.8
20260509040018 5 180 3.2 4.8 0.00 0.18 0.18 75 1009.7
20260509035018 5 203 3.2 4.8 0.00 0.18 0.18 75 1009.7
20260509034018 5 180 1.6 4.8 0.00 0.18 0.18 74 1009.7
20260509033018 6 180 3.2 6.4 0.00 0.18 0.18 73 1009.8
20260509032018 6 180 3.2 4.8 0.00 0.18 0.18 73 1009.7
20260509031018 6 180 3.2 6.4 0.00 0.18 0.18 72 1009.8
20260509030018 6 180 3.2 4.8 0.00 0.18 0.18 72 1010.0
20260509025017 6 180 3.2 6.4 0.00 0.18 0.18 71 1010.0
20260509024037 6 180 3.2 4.8 0.00 0.18 0.18 71 1010.1
20260509023037 6 180 3.2 6.4 0.00 0.18 0.18 70 1010.1
20260509022017 7 180 4.8 8.0 0.00 0.18 0.18 69 1010.0
20260509021057 7 180 3.2 6.4 0.00 0.18 0.18 68 1010.1
20260509020017 7 180 4.8 8.0 0.00 0.18 0.18 67 1010.1
20260509015058 7 135 3.2 8.0 0.00 0.18 0.18 67 1010.0
20260509014017 7 180 4.8 8.0 0.00 0.18 0.18 66 1009.9
20260509013017 8 158 4.8 8.0 0.00 0.18 0.18 64 1009.7
20260509012017 8 158 3.2 6.4 0.00 0.18 0.18 62 1009.6
20260509011017 9 180 1.6 3.2 0.00 0.18 0.18 60 1009.4
20260509010017 9 158 1.6 3.2 0.00 0.18 0.18 57 1009.3
20260509005017 10 0.0 1.6 0.00 0.18 0.18 55 1009.1
20260509004017 10 180 1.6 4.8 0.00 0.18 0.18 52 1009.0
20260509003138 11 0.0 0.0 0.00 0.18 0.18 49 1009.0
20260509002017 11 0.0 1.6 0.00 0.18 0.18 46 1008.9
20260509001017 12 0.0 1.6 0.00 0.18 0.18 42 1008.8
20260509000017 12 0.0 0.0 0.00 0.18 0.18 41 1008.8
20260508235017 13 0.0 0.0 0.00 0.18 0.18 39 1008.7
20260508234017 13 23 3.2 4.8 0.00 0.18 0.18 39 1008.6
20260508233017 13 0.0 3.2 0.00 0.18 0.18 37 1008.5
20260508232018 13 23 1.6 4.8 0.00 0.18 0.18 38 1008.5
20260508231039 13 45 3.2 6.4 0.00 0.18 0.18 39 1008.5
20260508230019 13 23 4.8 6.4 0.00 0.18 0.18 39 1008.5
20260508225019 13 338 3.2 6.4 0.00 0.18 0.18 39 1008.5
20260508224019 13 338 6.4 16.1 0.00 0.18 0.18 39 1008.6
20260508223019 15 315 3.2 6.4 0.00 0.18 0.18 36 1008.6
20260508222019 15 225 1.6 4.8 0.00 0.18 0.18 38 1008.6
20260508221018 15 315 4.8 9.7 0.00 0.18 0.18 38 1008.8
20260508220018 14 225 1.6 9.7 0.00 0.18 0.18 38 1008.9
20260508215018 14 225 9.7 16.1 0.00 0.18 0.18 40 1009.0
20260508214018 13 248 6.4 20.9 0.00 0.18 0.18 41 1009.0
20260508213018 14 225 9.7 22.5 0.00 0.18 0.18 37 1009.1
20260508212018 14 270 9.7 16.1 0.00 0.18 0.18 39 1009.0
20260508211038 13 315 8.0 19.3 0.00 0.18 0.18 39 1008.9
20260508210018 13 270 9.7 17.7 0.00 0.18 0.18 40 1009.1
20260508205018 13 270 8.0 16.1 0.00 0.18 0.18 42 1009.2
20260508204018 14 270 8.0 16.1 0.00 0.18 0.18 40 1009.2
20260508203039 13 315 3.2 6.4 0.00 0.18 0.18 46 1009.2
20260508202018 13 248 4.8 14.5 0.00 0.18 0.18 47 1009.3
20260508201018 13 248 6.4 11.3 0.00 0.18 0.18 48 1009.5
20260508200018 13 270 1.6 8.0 0.00 0.18 0.18 44 1009.6
20260508195141 13 248 6.4 22.5 0.00 0.18 0.18 47 1009.7
20260508194038 12 248 4.8 11.3 0.00 0.18 0.18 50 1009.8
20260508193018 13 270 6.4 16.1 0.00 0.18 0.18 46 1009.8
20260508192018 12 293 4.8 9.7 0.00 0.18 0.18 51 1009.7
20260508191018 12 225 8.0 19.3 0.00 0.18 0.18 53 1009.9
20260508190038 12 248 4.8 9.7 0.00 0.18 0.18 58 1009.9
20260508185018 11 203 8.0 14.5 0.00 0.18 0.18 58 1010.1
20260508184018 11 225 9.7 17.7 0.00 0.18 0.18 60 1010.2
20260508183018 11 23 3.2 9.7 0.00 0.18 0.18 61 1010.3
20260508182018 10 293 3.2 6.4 0.00 0.18 0.18 64 1010.3
20260508181018 10 293 4.8 11.3 0.00 0.18 0.18 62 1010.5
20260508180038 10 293 8.0 14.5 0.00 0.18 0.18 58 1010.3
20260508175018 10 225 6.4 14.5 0.00 0.18 0.18 60 1010.4
20260508174038 10 225 11.3 19.3 0.00 0.18 0.18 60 1010.4
20260508173018 11 225 3.2 9.7 0.00 0.18 0.18 60 1010.4
20260508172018 10 225 8.0 22.5 0.00 0.18 0.18 63 1010.4
20260508171037 10 225 6.4 14.5 0.00 0.18 0.18 63 1010.7
20260508170017 10 248 6.4 17.7 0.00 0.18 0.18 64 1010.8
20260508165017 9 225 4.8 9.7 0.00 0.18 0.18 63 1010.8
20260508164017 9 248 4.8 12.9 0.00 0.18 0.18 66 1010.6
20260508163017 9 248 3.2 8.0 0.00 0.18 0.18 66 1010.6
20260508162017 9 225 4.8 11.3 0.00 0.18 0.18 66 1010.8
20260508161017 10 203 9.7 25.7 0.00 0.18 0.18 66 1010.8
20260508160017 8 225 8.0 16.1 0.00 0.18 0.18 69 1010.8
20260508155037 8 203 8.0 16.1 0.00 0.18 0.18 72 1010.9
20260508154017 8 225 6.4 14.5 0.03 0.18 0.18 75 1010.8
20260508153038 7 225 4.8 9.7 0.05 0.18 0.18 78 1010.9
20260508152017 6 248 9.7 19.3 0.05 0.18 0.18 78 1010.9
20260508151057 6 225 9.7 19.3 0.08 0.18 0.18 78 1011.0
20260508150017 6 203 6.4 11.3 0.08 0.18 0.18 81 1010.8